{"data":{"norad_id":66805,"intl_designator":"2025-278Q","name":"STARLINK-36049","alt_names":[],"object_type":"PAYLOAD","status":"ACTIVE","operator":null,"country":"US","launch_date":"2025-12-01","launch_site_code":"AFETR","launch_vehicle":null,"mission":null,"orbit_class":"UNKNOWN","rcs_meters":null,"size_class":null,"mass_kg":null,"dimensions":null,"purposes":["comms"],"wikipedia_slug":null,"has_3d_model":false,"image_url":null,"decayed_at":null,"tle_current":{"epoch":"2026-05-25T02:42:35.355744Z","epoch_age_seconds":66110,"freshness":"FRESH","line1":"1 66805U 25278Q   26145.11290921  .00021759  00000+0  79748-3 0  9993","line2":"2 66805  43.0046  43.0650 0001355 259.7138 100.3561 15.27597292 26891","mean_motion":15.27597292,"eccentricity":0.0001355,"inclination_deg":43.0046,"raan_deg":43.065,"arg_perigee_deg":259.7138,"mean_anomaly_deg":100.3561,"bstar":0.00079748,"rev_number":2689,"period_min":94.265681638823,"perigee_km":482.06763435922,"apogee_km":483.92700175942,"semimajor_km":6861.1343180593,"source":"CELESTRAK","updated_at":"2026-05-25T13:38:21.329581Z"}}}